Date,TemperatureHighF,TemperatureAvgF,TemperatureLowF,DewpointHighF,DewpointAvgF,DewpointLowF,HumidityHigh,HumidityAvg,HumidityLow,PressureMaxIn,PressureMinIn,WindSpeedMaxMPH,WindSpeedAvgMPH,GustSpeedMaxMPH,PrecipitationSumIn
2013-2-1,42,33,24,32,16,6,76,50,29,30.43,30.13,38,14,38,0.00
2013-2-2,42,31,21,36,22,9,97,75,26,30.42,30.19,20,4,20,0.12
2013-2-3,49,39,31,38,32,28,96,78,49,30.19,30.05,30,14,30,0.19
2013-2-4,49,39,28,32,28,22,89,67,42,30.19,30.07,24,3,24,0.00
2013-2-5,59,46,35,48,40,29,92,79,53,30.08,30.01,24,9,24,0.00
2013-2-6,64,52,39,45,36,29,90,58,31,30.21,30.08,16,4,16,0.00
2013-2-7,50,47,44,46,39,30,96,76,47,30.20,29.99,20,8,20,0.09
2013-2-8,54,46,30,49,42,28,98,86,53,30.21,29.95,29,8,29,0.07
2013-2-9,62,44,28,31,27,20,94,56,22,30.36,30.15,12,3,12,0.00
2013-2-10,53,46,40,46,36,28,97,70,45,30.38,30.16,24,10,24,1.17
2013-2-11,55,51,46,54,49,42,100,93,79,30.18,30.07,21,6,21,0.65
2013-2-12,56,47,40,47,38,26,96,74,34,30.13,29.84,14,3,14,0.29
2013-2-13,47,42,38,46,39,33,98,90,79,29.99,29.79,31,10,31,0.12
2013-2-14,54,42,31,38,34,29,94,74,48,30.12,29.99,24,8,24,0.01
2013-2-15,58,45,34,42,36,31,94,73,43,30.16,30.03,26,7,26,0.00
2013-2-16,38,33,27,30,21,14,85,61,45,30.17,29.99,21,10,32,0.00
2013-2-17,42,31,24,18,14,8,62,48,33,30.35,30.17,17,7,29,0.00
2013-2-18,56,41,27,33,25,16,72,54,38,30.43,30.22,12,2,21,0.00
2013-2-19,52,42,34,44,31,17,98,69,39,30.21,30.04,24,7,35,0.39
2013-2-20,50,39,31,22,13,4,63,36,16,30.22,30.14,17,6,23,0.00
2013-2-21,62,44,30,40,24,11,92,52,24,30.25,30.07,16,4,16,0.50
2013-2-22,42,40,38,41,39,37,100,96,92,30.23,30.09,23,9,23,1.17
2013-2-23,51,46,41,49,45,40,99,97,93,30.12,29.88,14,2,14,0.73
2013-2-24,62,49,38,45,35,27,96,62,30,30.06,29.93,20,6,20,0.01
2013-2-25,50,44,37,38,31,21,95,61,45,30.09,29.92,24,12,24,0.01
2013-2-26,44,40,37,43,38,36,98,94,80,29.93,29.64,31,13,31,1.60
2013-2-27,53,44,38,40,36,32,90,74,53,29.94,29.81,33,16,33,0.01
2013-2-28,42,37,34,35,29,26,79,73,65,30.03,29.86,31,15,31,0.00